UAE88F OPKC-OMDB

Flight info

Callsign UAE88F
Flight time 1h 38m
Altitude 38000
Route MELOM1G MELOM A454 PASOV B540 MIVEK P574 IMPED IMPED3C
Aircraft A359/H-SDE2E3GHIJ3J4J5LM1ORWXY/LB1D1

Departure

Time 2026-05-06 13:16
Airport Jinnah International Airport (OPKC)

Arrival

Time 2026-05-06 14:54
Airport Dubai International Airport (OMDB)
Time Latitude Longitude Altitude Speed Heading
2026-05-06 12:52 24.90296 67.16844 104 ft 0 kts 127°
2026-05-06 13:08 24.90307 67.16828 104 ft 4 kts 127°
2026-05-06 13:08 24.90319 67.16809 104 ft 3 kts 127°
2026-05-06 13:08 24.90336 67.16786 104 ft 4 kts 134°
2026-05-06 13:09 24.90356 67.16766 104 ft 4 kts 135°
2026-05-06 13:09 24.90372 67.16744 103 ft 4 kts 100°
2026-05-06 13:09 24.90369 67.16721 103 ft 4 kts 75°
2026-05-06 13:09 24.90364 67.16697 104 ft 1 kts 75°
2026-05-06 13:12 24.90369 67.16719 103 ft 8 kts 74°
2026-05-06 13:12 24.90392 67.16812 106 ft 16 kts 75°
2026-05-06 13:13 24.90424 67.16944 107 ft 20 kts 74°
2026-05-06 13:13 24.90492 67.17038 105 ft 15 kts
2026-05-06 13:13 24.90571 67.17077 106 ft 12 kts 65°
2026-05-06 13:13 24.90601 67.17183 106 ft 20 kts 74°
2026-05-06 13:14 24.90649 67.17360 108 ft 27 kts 69°
2026-05-06 13:14 24.90747 67.17460 109 ft 1 kts 28°
2026-05-06 13:14 24.90782 67.17479 109 ft 14 kts 23°
2026-05-06 13:14 24.90861 67.17461 111 ft 6 kts 296°
2026-05-06 13:15 24.90857 67.17397 109 ft 11 kts 256°
2026-05-06 13:15 24.90820 67.17249 109 ft 46 kts 254°
2026-05-06 13:15 24.90658 67.16619 106 ft 123 kts 254°
2026-05-06 13:15 24.90368 67.15500 337 ft 166 kts 253°
2026-05-06 13:16 24.90057 67.14243 1107 ft 176 kts 251°
2026-05-06 13:16 24.89477 67.12941 1641 ft 206 kts 235°
2026-05-06 13:16 24.88453 67.11722 2093 ft 224 kts 226°
2026-05-06 13:16 24.87329 67.10525 2796 ft 224 kts 225°
2026-05-06 13:17 24.86214 67.09311 3452 ft 228 kts 226°
2026-05-06 13:17 24.85093 67.08046 4049 ft 234 kts 227°
2026-05-06 13:17 24.83976 67.06753 4652 ft 240 kts 229°
2026-05-06 13:17 24.82809 67.05380 5162 ft 248 kts 230°
2026-05-06 13:18 24.81618 67.03974 5751 ft 255 kts 230°
2026-05-06 13:18 24.80391 67.02517 6275 ft 263 kts 229°
2026-05-06 13:18 24.79152 67.01018 6845 ft 266 kts 232°
2026-05-06 13:18 24.78252 66.99262 7388 ft 264 kts 257°
2026-05-06 13:19 24.78093 66.97224 7729 ft 274 kts 276°
2026-05-06 13:19 24.78300 66.95097 8174 ft 282 kts 281°
2026-05-06 13:19 24.78565 66.92944 8762 ft 285 kts 281°
2026-05-06 13:19 24.78827 66.90763 9363 ft 289 kts 281°
2026-05-06 13:20 24.79080 66.88552 9925 ft 294 kts 281°
2026-05-06 13:20 24.79329 66.86295 10197 ft 308 kts 281°
2026-05-06 13:20 24.79591 66.83903 10424 ft 322 kts 280°
2026-05-06 13:20 24.79592 66.83887 10423 ft 322 kts 280°
2026-05-06 13:21 24.79682 66.82369 10557 ft 332 kts 275°
2026-05-06 13:21 24.79682 66.79768 10772 ft 346 kts 272°
2026-05-06 13:22 24.79601 66.77076 11009 ft 357 kts 270°
2026-05-06 13:22 24.79464 66.74329 11410 ft 361 kts 270°
2026-05-06 13:22 24.79299 66.71559 11860 ft 364 kts 269°
2026-05-06 13:22 24.79126 66.68771 12331 ft 366 kts 269°
2026-05-06 13:23 24.78953 66.65960 12798 ft 368 kts 269°
2026-05-06 13:23 24.78787 66.63180 13248 ft 370 kts 269°
2026-05-06 13:23 24.78623 66.60340 13679 ft 372 kts 269°
2026-05-06 13:23 24.78461 66.57484 14114 ft 373 kts 270°
2026-05-06 13:24 24.78300 66.54626 14545 ft 375 kts 270°
2026-05-06 13:24 24.78139 66.51761 14984 ft 376 kts 270°
2026-05-06 13:24 24.77978 66.48890 15430 ft 377 kts 270°
2026-05-06 13:24 24.77816 66.46002 15857 ft 378 kts 270°
2026-05-06 13:25 24.77653 66.43107 16293 ft 379 kts 270°
2026-05-06 13:25 24.77490 66.40237 16720 ft 381 kts 270°
2026-05-06 13:25 24.77324 66.37324 17150 ft 382 kts 269°
2026-05-06 13:25 24.77157 66.34401 17582 ft 384 kts 269°
2026-05-06 13:26 24.76988 66.31465 18010 ft 385 kts 269°
2026-05-06 13:26 24.76818 66.28516 18373 ft 387 kts 269°
2026-05-06 13:26 24.76646 66.25550 18709 ft 388 kts 270°
2026-05-06 13:26 24.76474 66.22577 19062 ft 389 kts 270°
2026-05-06 13:27 24.76300 66.19599 19415 ft 391 kts 270°
2026-05-06 13:27 24.76125 66.16606 19757 ft 392 kts 270°
2026-05-06 13:27 24.75949 66.13603 20089 ft 394 kts 270°
2026-05-06 13:27 24.75771 66.10587 20419 ft 395 kts 270°
2026-05-06 13:28 24.75595 66.07602 20737 ft 397 kts 270°
2026-05-06 13:28 24.75415 66.04557 21065 ft 398 kts 270°
2026-05-06 13:28 24.75234 66.01513 21389 ft 400 kts 270°
2026-05-06 13:28 24.75051 65.98446 21692 ft 402 kts 270°
2026-05-06 13:29 24.74867 65.95375 22008 ft 403 kts 270°
2026-05-06 13:29 24.74682 65.92291 22297 ft 405 kts 270°
2026-05-06 13:29 24.74495 65.89192 22576 ft 407 kts 270°
2026-05-06 13:29 24.74309 65.86120 22868 ft 408 kts 270°
2026-05-06 13:30 24.74119 65.82993 23167 ft 409 kts 270°
2026-05-06 13:30 24.73928 65.79854 23446 ft 411 kts 270°
2026-05-06 13:30 24.73735 65.76702 23689 ft 412 kts 270°
2026-05-06 13:30 24.73544 65.73587 23942 ft 413 kts 270°
2026-05-06 13:31 24.73349 65.70426 24196 ft 414 kts 270°
2026-05-06 13:31 24.73153 65.67249 24456 ft 415 kts 270°
2026-05-06 13:31 24.72955 65.64068 24734 ft 416 kts 270°
2026-05-06 13:31 24.72757 65.60888 24993 ft 417 kts 270°
2026-05-06 13:32 24.72558 65.57695 25261 ft 418 kts 270°
2026-05-06 13:32 24.72359 65.54502 25532 ft 419 kts 270°
2026-05-06 13:32 24.72157 65.51294 25797 ft 421 kts 270°
2026-05-06 13:32 24.71954 65.48077 26084 ft 422 kts 270°
2026-05-06 13:33 24.71753 65.44890 26366 ft 423 kts 270°
2026-05-06 13:33 24.71548 65.41659 26643 ft 424 kts 270°
2026-05-06 13:33 24.71341 65.38417 26939 ft 425 kts 270°
2026-05-06 13:33 24.71133 65.35160 27235 ft 427 kts 270°
2026-05-06 13:34 24.70924 65.31898 27531 ft 428 kts 270°
2026-05-06 13:34 24.70713 65.28624 27810 ft 430 kts 270°
2026-05-06 13:34 24.70501 65.25334 28091 ft 432 kts 270°
2026-05-06 13:34 24.70288 65.22037 28388 ft 433 kts 270°
2026-05-06 13:35 24.70072 65.18732 28775 ft 433 kts 270°
2026-05-06 13:35 24.69856 65.15430 29120 ft 433 kts 270°
2026-05-06 13:35 24.69639 65.12115 29418 ft 435 kts 270°
2026-05-06 13:35 24.69421 65.08791 29715 ft 437 kts 270°
2026-05-06 13:36 24.69201 65.05447 29986 ft 439 kts 270°
2026-05-06 13:36 24.68983 65.02137 30246 ft 440 kts 270°
2026-05-06 13:36 24.68759 64.98771 30534 ft 441 kts 269°
2026-05-06 13:36 24.68535 64.95397 30834 ft 443 kts 269°
2026-05-06 13:37 24.68308 64.92013 31136 ft 444 kts 269°
2026-05-06 13:37 24.68081 64.88615 31453 ft 446 kts 269°
2026-05-06 13:37 24.67851 64.85206 31754 ft 447 kts 269°
2026-05-06 13:37 24.67621 64.81797 32068 ft 447 kts 269°
2026-05-06 13:38 24.67389 64.78380 32383 ft 448 kts 269°
2026-05-06 13:38 24.67159 64.75002 32700 ft 449 kts 269°
2026-05-06 13:38 24.66926 64.71574 33021 ft 449 kts 269°
2026-05-06 13:38 24.66691 64.68151 33348 ft 450 kts 268°
2026-05-06 13:39 24.66456 64.64715 33678 ft 450 kts 268°
2026-05-06 13:39 24.66219 64.61284 33979 ft 450 kts 268°
2026-05-06 13:39 24.65982 64.57845 34269 ft 451 kts 268°
2026-05-06 13:39 24.65743 64.54401 34561 ft 452 kts 268°
2026-05-06 13:40 24.65503 64.50954 34856 ft 452 kts 268°
2026-05-06 13:40 24.65262 64.47501 35158 ft 453 kts 268°
2026-05-06 13:40 24.65023 64.44086 35462 ft 453 kts 268°
2026-05-06 13:40 24.64780 64.40618 35764 ft 454 kts 268°
2026-05-06 13:41 24.64536 64.37157 36077 ft 454 kts 268°
2026-05-06 13:41 24.64291 64.33686 36385 ft 454 kts 267°
2026-05-06 13:41 24.64045 64.30219 36716 ft 455 kts 267°
2026-05-06 13:41 24.63797 64.26745 37031 ft 455 kts 267°
2026-05-06 13:42 24.63553 64.23325 37353 ft 455 kts 267°
2026-05-06 13:42 24.63304 64.19855 37672 ft 455 kts 267°
2026-05-06 13:42 24.63053 64.16361 37781 ft 460 kts 267°
2026-05-06 13:43 24.62546 64.09325 37772 ft 462 kts 267°
2026-05-06 13:43 24.62033 64.02279 37785 ft 462 kts 266°
2026-05-06 13:44 24.61520 63.95264 37784 ft 463 kts 266°
2026-05-06 13:44 24.61000 63.88207 37772 ft 463 kts 266°
2026-05-06 13:45 24.60477 63.81158 37785 ft 463 kts 266°
2026-05-06 13:45 24.59690 63.70619 37783 ft 463 kts 266°
2026-05-06 13:46 24.59159 63.63553 37774 ft 464 kts 266°
2026-05-06 13:46 24.58623 63.56484 37788 ft 464 kts 266°
2026-05-06 13:47 24.58084 63.49419 37782 ft 464 kts 266°
2026-05-06 13:47 24.57542 63.42347 37772 ft 464 kts 266°
2026-05-06 13:48 24.56999 63.35315 37777 ft 464 kts 266°
2026-05-06 13:48 24.56450 63.28236 37787 ft 465 kts 266°
2026-05-06 13:49 24.55899 63.21188 37788 ft 464 kts 266°
2026-05-06 13:49 24.55344 63.14118 37781 ft 464 kts 266°
2026-05-06 13:50 24.54784 63.07033 37782 ft 465 kts 266°
2026-05-06 13:50 24.54316 63.01149 37791 ft 465 kts 266°
2026-05-06 13:51 24.53750 62.94070 37779 ft 465 kts 266°
2026-05-06 13:51 24.53181 62.86996 37785 ft 465 kts 266°
2026-05-06 13:52 24.52609 62.79917 37781 ft 465 kts 265°
2026-05-06 13:52 24.52036 62.72876 37776 ft 465 kts 265°
2026-05-06 13:53 24.51455 62.65781 37781 ft 465 kts 266°
2026-05-06 13:53 24.50877 62.58760 37774 ft 464 kts 266°
2026-05-06 13:54 24.50294 62.51713 37776 ft 463 kts 265°
2026-05-06 13:54 24.49707 62.44646 37784 ft 464 kts 265°
2026-05-06 13:55 24.49117 62.37596 37786 ft 464 kts 265°
2026-05-06 13:55 24.48526 62.30585 37784 ft 464 kts 265°
2026-05-06 13:56 24.47928 62.23522 37775 ft 464 kts 265°
2026-05-06 13:56 24.47328 62.16465 37783 ft 464 kts 265°
2026-05-06 13:57 24.46723 62.09400 37779 ft 464 kts 265°
2026-05-06 13:57 24.46115 62.02343 37781 ft 464 kts 265°
2026-05-06 13:58 24.45509 61.95333 37777 ft 464 kts 265°
2026-05-06 13:58 24.44895 61.88273 37780 ft 464 kts 265°
2026-05-06 13:59 24.44276 61.81202 37778 ft 464 kts 265°
2026-05-06 13:59 24.43659 61.74186 37785 ft 464 kts 265°
2026-05-06 14:00 24.43035 61.67127 37781 ft 464 kts 265°
2026-05-06 14:00 24.42406 61.60062 37786 ft 464 kts 265°
2026-05-06 14:01 24.41776 61.53002 37784 ft 464 kts 265°
2026-05-06 14:01 24.41146 61.45989 37782 ft 464 kts 265°
2026-05-06 14:02 24.40508 61.38930 37786 ft 464 kts 265°
2026-05-06 14:02 24.39649 61.31897 37780 ft 465 kts 260°
2026-05-06 14:03 24.38293 61.24946 37782 ft 465 kts 258°
2026-05-06 14:03 24.36844 61.18020 37780 ft 465 kts 258°
2026-05-06 14:04 24.35393 61.11139 37787 ft 465 kts 258°
2026-05-06 14:04 24.33940 61.04219 37782 ft 465 kts 258°
2026-05-06 14:05 24.32489 60.97291 37793 ft 466 kts 258°
2026-05-06 14:05 24.31037 60.90368 37790 ft 466 kts 258°
2026-05-06 14:06 24.29591 60.83495 37787 ft 466 kts 258°
2026-05-06 14:06 24.28132 60.76573 37781 ft 466 kts 258°
2026-05-06 14:07 24.26668 60.69650 37791 ft 466 kts 258°
2026-05-06 14:07 24.25203 60.62732 37788 ft 466 kts 258°
2026-05-06 14:08 24.23732 60.55808 37789 ft 466 kts 258°
2026-05-06 14:08 24.22268 60.48932 37790 ft 466 kts 258°
2026-05-06 14:09 24.20791 60.42009 37789 ft 466 kts 258°
2026-05-06 14:09 24.19313 60.35098 37794 ft 465 kts 258°
2026-05-06 14:10 24.17832 60.28190 37796 ft 465 kts 258°
2026-05-06 14:10 24.16357 60.21327 37794 ft 465 kts 258°
2026-05-06 14:11 24.14870 60.14424 37798 ft 465 kts 258°
2026-05-06 14:11 24.13380 60.07520 37794 ft 466 kts 258°
2026-05-06 14:12 24.11885 60.00613 37798 ft 466 kts 258°
2026-05-06 14:12 24.10395 59.93744 37796 ft 466 kts 258°
2026-05-06 14:13 24.08895 59.86840 37792 ft 466 kts 257°
2026-05-06 14:13 24.07389 59.79929 37794 ft 467 kts 257°
2026-05-06 14:14 24.05879 59.73015 37796 ft 467 kts 257°
2026-05-06 14:14 24.04377 59.66151 37794 ft 467 kts 257°
2026-05-06 14:15 24.02862 59.59247 37795 ft 467 kts 257°
2026-05-06 14:15 24.01342 59.52334 37796 ft 466 kts 257°
2026-05-06 14:16 23.99821 59.45430 37790 ft 466 kts 257°
2026-05-06 14:16 23.98297 59.38530 37791 ft 466 kts 257°
2026-05-06 14:17 23.96777 59.31666 37789 ft 466 kts 257°
2026-05-06 14:17 23.95246 59.24765 37790 ft 466 kts 257°
2026-05-06 14:18 23.93893 59.17835 37789 ft 466 kts 263°
2026-05-06 14:18 23.94019 59.10783 37789 ft 465 kts 279°
2026-05-06 14:19 23.95770 59.04014 37789 ft 466 kts 288°
2026-05-06 14:19 23.97937 58.97323 37789 ft 467 kts 289°
2026-05-06 14:20 24.00150 58.90628 37788 ft 467 kts 289°
2026-05-06 14:20 24.02319 58.83942 37794 ft 465 kts 288°
2026-05-06 14:21 24.04441 58.77306 37789 ft 465 kts 288°
2026-05-06 14:21 24.06571 58.70616 37788 ft 465 kts 288°
2026-05-06 14:22 24.08694 58.63936 37788 ft 465 kts 288°
2026-05-06 14:22 24.10820 58.57242 37786 ft 465 kts 288°
2026-05-06 14:23 24.12941 58.50554 37787 ft 465 kts 288°
2026-05-06 14:23 24.15043 58.43914 37788 ft 465 kts 288°
2026-05-06 14:24 24.17159 58.37218 37793 ft 464 kts 288°
2026-05-06 14:24 24.19267 58.30536 37785 ft 463 kts 288°
2026-05-06 14:25 24.21370 58.23856 37783 ft 463 kts 288°
2026-05-06 14:25 24.23457 58.17221 37783 ft 463 kts 288°
2026-05-06 14:26 24.25553 58.10543 37784 ft 463 kts 288°
2026-05-06 14:26 24.27644 58.03866 37782 ft 463 kts 288°
2026-05-06 14:27 24.29735 57.97182 37788 ft 463 kts 287°
2026-05-06 14:27 24.31825 57.90489 37787 ft 463 kts 287°
2026-05-06 14:28 24.33895 57.83847 37770 ft 462 kts 287°
2026-05-06 14:28 24.35978 57.77154 37777 ft 462 kts 287°
2026-05-06 14:29 24.38049 57.70486 37783 ft 462 kts 287°
2026-05-06 14:29 24.40119 57.63812 37789 ft 462 kts 287°
2026-05-06 14:30 24.42185 57.57136 37787 ft 462 kts 287°
2026-05-06 14:30 24.44250 57.50453 37782 ft 462 kts 287°
2026-05-06 14:31 24.46299 57.43811 37783 ft 462 kts 287°
2026-05-06 14:31 24.48358 57.37123 37783 ft 462 kts 287°
2026-05-06 14:32 24.50404 57.30469 37399 ft 459 kts 287°
2026-05-06 14:32 24.51429 57.27129 36826 ft 461 kts 287°
2026-05-06 14:32 24.52442 57.23828 36125 ft 449 kts 287°
2026-05-06 14:33 24.53426 57.20621 35419 ft 438 kts 287°
2026-05-06 14:33 24.54395 57.17457 34714 ft 436 kts 288°
2026-05-06 14:33 24.55350 57.14334 34047 ft 434 kts 288°
2026-05-06 14:33 24.56299 57.11227 33298 ft 423 kts 288°
2026-05-06 14:34 24.57229 57.08184 32513 ft 417 kts 287°
2026-05-06 14:34 24.58152 57.05159 31696 ft 418 kts 287°
2026-05-06 14:34 24.59079 57.02117 30853 ft 421 kts 287°
2026-05-06 14:34 24.60013 56.99047 30034 ft 425 kts 287°
2026-05-06 14:35 24.60952 56.95963 29056 ft 424 kts 287°
2026-05-06 14:35 24.61881 56.92909 28087 ft 419 kts 287°
2026-05-06 14:35 24.62798 56.89891 27142 ft 413 kts 288°
2026-05-06 14:35 24.63689 56.86959 26244 ft 407 kts 288°
2026-05-06 14:36 24.64781 56.84098 25349 ft 403 kts 296°
2026-05-06 14:36 24.66122 56.81399 24484 ft 400 kts 299°
2026-05-06 14:36 24.67518 56.78762 23711 ft 397 kts 300°
2026-05-06 14:36 24.68944 56.76164 23129 ft 396 kts 301°
2026-05-06 14:37 24.70369 56.73607 22823 ft 395 kts 301°
2026-05-06 14:37 24.71803 56.71042 22755 ft 393 kts 301°
2026-05-06 14:37 24.73212 56.68515 22078 ft 383 kts 301°
2026-05-06 14:37 24.74618 56.65981 20974 ft 394 kts 301°
2026-05-06 14:38 24.76094 56.63311 20169 ft 422 kts 302°
2026-05-06 14:38 24.77643 56.60502 19636 ft 434 kts 302°
2026-05-06 14:38 24.79211 56.57653 19098 ft 436 kts 302°
2026-05-06 14:38 24.80248 56.55766 18756 ft 434 kts 302°
2026-05-06 14:39 24.82334 56.51969 18064 ft 431 kts 302°
2026-05-06 14:39 24.83864 56.49182 17475 ft 429 kts 302°
2026-05-06 14:39 24.84902 56.47289 17069 ft 427 kts 302°
2026-05-06 14:39 24.86432 56.44497 16518 ft 423 kts 301°
2026-05-06 14:40 24.87682 56.41579 15944 ft 420 kts 289°
2026-05-06 14:40 24.88273 56.38491 15405 ft 416 kts 276°
2026-05-06 14:40 24.88404 56.35346 14864 ft 406 kts 270°
2026-05-06 14:40 24.88332 56.32269 14325 ft 397 kts 267°
2026-05-06 14:41 24.88161 56.29262 13807 ft 389 kts 265°
2026-05-06 14:41 24.88235 56.26321 13247 ft 382 kts 277°
2026-05-06 14:41 24.88997 56.23538 12687 ft 376 kts 292°
2026-05-06 14:41 24.90156 56.20979 12119 ft 370 kts 296°
2026-05-06 14:42 24.91386 56.18507 11550 ft 364 kts 297°
2026-05-06 14:42 24.92599 56.16120 11011 ft 358 kts 298°
2026-05-06 14:42 24.93810 56.13750 10496 ft 352 kts 298°
2026-05-06 14:42 24.95001 56.11425 10116 ft 341 kts 298°
2026-05-06 14:43 24.96145 56.09201 9889 ft 327 kts 298°
2026-05-06 14:43 24.97134 56.07012 9653 ft 312 kts 290°
2026-05-06 14:43 24.97886 56.04808 9384 ft 301 kts 288°
2026-05-06 14:43 24.98562 56.02686 9026 ft 294 kts 287°
2026-05-06 14:44 24.99218 56.00555 8582 ft 292 kts 287°
2026-05-06 14:44 24.99859 55.98438 8122 ft 291 kts 287°
2026-05-06 14:44 25.00493 55.96329 7640 ft 289 kts 287°
2026-05-06 14:45 25.01748 55.92113 6705 ft 288 kts 288°
2026-05-06 14:45 25.02370 55.90021 6283 ft 286 kts 288°
2026-05-06 14:45 25.02987 55.87949 6033 ft 284 kts 288°
2026-05-06 14:45 25.03604 55.85877 5872 ft 284 kts 288°
2026-05-06 14:46 25.04211 55.83835 5558 ft 282 kts 288°
2026-05-06 14:46 25.04820 55.81781 5229 ft 282 kts 288°
2026-05-06 14:46 25.05429 55.79730 4901 ft 281 kts 288°
2026-05-06 14:46 25.06034 55.77682 4573 ft 280 kts 289°
2026-05-06 14:47 25.06637 55.75644 4237 ft 278 kts 289°
2026-05-06 14:47 25.07238 55.73616 3902 ft 277 kts 289°
2026-05-06 14:47 25.07832 55.71596 3575 ft 276 kts 290°
2026-05-06 14:47 25.08424 55.69592 3247 ft 274 kts 290°
2026-05-06 14:48 25.09014 55.67599 2921 ft 273 kts 289°
2026-05-06 14:48 25.09596 55.65613 2585 ft 271 kts 289°
2026-05-06 14:48 25.10234 55.63716 2262 ft 263 kts 297°
2026-05-06 14:48 25.11075 55.61963 2027 ft 252 kts 301°
2026-05-06 14:49 25.11953 55.60376 1993 ft 232 kts 304°
2026-05-06 14:49 25.12777 55.58937 2004 ft 210 kts 304°
2026-05-06 14:49 25.13508 55.57626 1999 ft 194 kts 303°
2026-05-06 14:49 25.14196 55.56388 1985 ft 179 kts 303°
2026-05-06 14:50 25.14822 55.55260 1992 ft 164 kts 304°
2026-05-06 14:50 25.15377 55.54255 1986 ft 149 kts 305°
2026-05-06 14:50 25.15920 55.53283 1997 ft 148 kts 306°
2026-05-06 14:50 25.16458 55.52320 1993 ft 146 kts 305°
2026-05-06 14:51 25.16987 55.51375 1994 ft 144 kts 303°
2026-05-06 14:51 25.17509 55.50432 1988 ft 144 kts 302°
2026-05-06 14:51 25.18022 55.49479 1992 ft 145 kts 299°
2026-05-06 14:51 25.18538 55.48510 1861 ft 147 kts 302°
2026-05-06 14:52 25.19092 55.47563 1621 ft 147 kts 306°
2026-05-06 14:52 25.19627 55.46605 1415 ft 145 kts 305°
2026-05-06 14:52 25.20150 55.45663 1269 ft 147 kts 303°
2026-05-06 14:52 25.20695 55.44707 991 ft 144 kts 305°
2026-05-06 14:53 25.21214 55.43770 889 ft 146 kts 302°
2026-05-06 14:53 25.21738 55.42806 728 ft 146 kts 305°
2026-05-06 14:53 25.22278 55.41843 586 ft 148 kts 303°
2026-05-06 14:53 25.22810 55.40884 384 ft 146 kts 303°
2026-05-06 14:54 25.23333 55.39937 173 ft 143 kts 305°
2026-05-06 14:54 25.23853 55.39006 40 ft 140 kts 306°
2026-05-06 14:54 25.24316 55.38179 20 ft 98 kts 301°
2026-05-06 14:54 25.24536 55.37786 20 ft 41 kts 301°
2026-05-06 14:55 25.24604 55.37608 18 ft 0 kts 294°
2026-05-06 14:55 25.24608 55.37579 19 ft 12 kts 278°
2026-05-06 14:55 25.24615 55.37468 18 ft 13 kts 270°
2026-05-06 14:55 25.24619 55.37352 17 ft 17 kts 275°
2026-05-06 14:56 25.24653 55.37214 18 ft 20 kts 298°
2026-05-06 14:56 25.24697 55.37131 16 ft 8 kts 302°
2026-05-06 14:56 25.24720 55.37090 16 ft 5 kts 302°
2026-05-06 14:56 25.24749 55.37038 16 ft 11 kts 302°
2026-05-06 14:57 25.24761 55.36957 19 ft 11 kts 230°
2026-05-06 14:57 25.24686 55.36900 18 ft 16 kts 213°
2026-05-06 14:57 25.24599 55.36843 18 ft 12 kts 211°
2026-05-06 14:57 25.24537 55.36800 17 ft 1 kts 212°
2026-05-06 14:58 25.24535 55.36798 17 ft 2 kts 212°
2026-05-06 14:58 25.24525 55.36792 17 ft 3 kts 211°
2026-05-06 14:58 25.24492 55.36770 16 ft 8 kts 211°
2026-05-06 14:59 25.24431 55.36743 18 ft 7 kts 170°
2026-05-06 14:59 25.24416 55.36774 16 ft 6 kts 99°
2026-05-06 14:59 25.24423 55.36840 16 ft 11 kts 77°
2026-05-06 14:59 25.24427 55.36860 16 ft 2 kts 77°
2026-05-06 15:00 25.24430 55.36875 16 ft 1 kts 78°
2026-05-06 15:00 25.24430 55.36878 16 ft 0 kts 78°